Terminal Aerodrome Forecast
Issued by NWS Chicago, IL

Home | Current Version | Previous Version | Text Only | Print | Product List | Glossary Off
Versions: 1 2 3 4 5 6 7 8 9 10 11 12 13 14 15 16 17 18 19 20 21 22 23 24 25 26 27 28 29 30 31 32

000
FTUS43 KLOT 231700
TAFRFD
TAF
KRFD 231728Z 2318/2418 02014G22KT P6SM FEW030 FEW250
     FM240000 06005KT P6SM SCT040 BKN200
     FM240700 VRB03KT P6SM SKC
     FM241500 05006KT P6SM SCT250=

USA.gov is the U.S. government's official web portal to all federal, state and local government web resources and services.